Location: ?????
(31.8092°N, 35.2590°E)
Time: 20:24:59
(UTC+00:00)

Cosmos 1455 Rocket - Pass Details

Date: 20 October 2021
Orbit: 604 x 630 km, 82.5° (Epoch: 04 December)

Event Time Altitude Azimuth Distance (km) Brightness Sun altitude
Rises 01:53:10 0° 22° (NNE) 2,920 6.8 -24.6°
Reaches altitude 10° 01:58:07 10° 71° (ENE) 2,001 6.7 -23.6°
Maximum altitude 01:58:18 10° 73° (ENE) 1,999 6.7 -23.6°
Drops below altitude 10° 01:58:28 10° 75° (ENE) 2,000 6.7 -23.5°
Sets 02:03:23 0° 124° (SE) 2,891 7.4 -22.5°
